Time,TemperatureF,DewpointF,PressureIn,WindDirection,WindDirectionDegrees,WindSpeedMPH,WindSpeedGustMPH,Humidity,HourlyPrecipIn,Conditions,Clouds,dailyrainin,SoftwareType,DateUTC
2013-02-14 00:16:00,41.2,32.0,29.88,NNE,14,0.0,8.0,70,0.00,,,0.00,weatherlink.com 1.10,2013-02-14 05:16:00,
2013-02-14 00:31:00,40.7,32.0,29.89,NW,315,3.0,4.0,71,0.00,,,0.00,weatherlink.com 1.10,2013-02-14 05:31:00,
2013-02-14 00:46:00,39.5,32.0,29.89,SW,234,1.0,3.0,74,0.00,,,0.00,weatherlink.com 1.10,2013-02-14 05:46:00,
2013-02-14 01:01:00,38.6,32.0,29.89,WNW,288,2.0,5.0,76,0.00,,,0.00,weatherlink.com 1.10,2013-02-14 06:01:00,
2013-02-14 01:16:00,38.5,31.0,29.89,NW,313,1.0,5.0,75,0.00,,,0.00,weatherlink.com 1.10,2013-02-14 06:16:00,
2013-02-14 01:31:00,36.8,32.0,29.90,West,270,2.0,4.0,82,0.00,,,0.00,weatherlink.com 1.10,2013-02-14 06:31:00,
2013-02-14 01:47:00,36.7,31.0,29.91,WNW,295,0.0,6.0,80,0.00,,,0.00,weatherlink.com 1.10,2013-02-14 06:47:00,
2013-02-14 02:02:00,36.2,32.0,29.91,WNW,295,1.0,2.0,83,0.00,,,0.00,weatherlink.com 1.10,2013-02-14 07:02:00,
2013-02-14 02:17:00,35.5,31.0,29.91,North,351,2.0,4.0,83,0.00,,,0.00,weatherlink.com 1.10,2013-02-14 07:17:00,
2013-02-14 02:31:00,34.9,31.0,29.91,NE,44,1.0,2.0,85,0.00,,,0.00,weatherlink.com 1.10,2013-02-14 07:31:00,
2013-02-14 02:46:00,35.1,31.0,29.92,NE,44,0.0,1.0,84,0.00,,,0.00,weatherlink.com 1.10,2013-02-14 07:46:00,
2013-02-14 03:02:00,34.5,31.0,29.92,ENE,73,1.0,3.0,87,0.00,,,0.00,weatherlink.com 1.10,2013-02-14 08:02:00,
2013-02-14 03:17:00,34.1,31.0,29.92,East,98,2.0,3.0,87,0.00,,,0.00,weatherlink.com 1.10,2013-02-14 08:17:00,
2013-02-14 03:32:00,33.5,30.0,29.92,NNE,24,1.0,2.0,88,0.00,,,0.00,weatherlink.com 1.10,2013-02-14 08:32:00,
2013-02-14 03:47:00,33.3,30.0,29.93,NNE,24,0.0,1.0,88,0.00,,,0.00,weatherlink.com 1.10,2013-02-14 08:47:00,
2013-02-14 04:02:00,32.8,30.0,29.93,ESE,107,2.0,3.0,89,0.00,,,0.00,weatherlink.com 1.10,2013-02-14 09:02:00,
2013-02-14 04:17:00,32.4,30.0,29.93,ESE,106,1.0,1.0,90,0.00,,,0.00,weatherlink.com 1.10,2013-02-14 09:17:00,
2013-02-14 04:32:00,32.1,30.0,29.94,ESE,107,0.0,2.0,91,0.00,,,0.00,weatherlink.com 1.10,2013-02-14 09:32:00,
2013-02-14 04:47:00,31.8,30.0,29.95,ESE,107,0.0,1.0,92,0.00,,,0.00,weatherlink.com 1.10,2013-02-14 09:47:00,
2013-02-14 05:02:00,31.7,30.0,29.95,ESE,106,1.0,1.0,92,0.00,,,0.00,weatherlink.com 1.10,2013-02-14 10:02:00,
2013-02-14 05:17:00,31.1,29.0,29.96,East,96,0.0,3.0,91,0.00,,,0.00,weatherlink.com 1.10,2013-02-14 10:17:00,
2013-02-14 05:32:00,30.5,29.0,29.96,East,97,0.0,3.0,93,0.00,,,0.00,weatherlink.com 1.10,2013-02-14 10:32:00,
2013-02-14 05:47:00,30.2,29.0,29.97,East,97,0.0,2.0,93,0.00,,,0.00,weatherlink.com 1.10,2013-02-14 10:47:00,
2013-02-14 06:02:00,30.1,29.0,29.97,East,97,1.0,2.0,94,0.00,,,0.00,weatherlink.com 1.10,2013-02-14 11:02:00,
2013-02-14 06:18:00,30.1,29.0,29.98,East,97,0.0,2.0,94,0.00,,,0.00,weatherlink.com 1.10,2013-02-14 11:18:00,
2013-02-14 06:32:00,29.7,28.0,29.98,East,97,1.0,2.0,94,0.00,,,0.00,weatherlink.com 1.10,2013-02-14 11:32:00,
2013-02-14 06:47:00,29.4,28.0,29.99,East,97,0.0,1.0,94,0.00,,,0.00,weatherlink.com 1.10,2013-02-14 11:47:00,
2013-02-14 07:03:00,29.3,28.0,29.99,East,97,0.0,2.0,95,0.00,,,0.00,weatherlink.com 1.10,2013-02-14 12:03:00,
2013-02-14 07:17:00,29.0,28.0,30.00,East,97,1.0,2.0,95,0.00,,,0.00,weatherlink.com 1.10,2013-02-14 12:17:00,
2013-02-14 07:32:00,28.4,27.0,30.02,East,97,1.0,1.0,95,0.00,,,0.00,weatherlink.com 1.10,2013-02-14 12:32:00,
2013-02-14 07:47:00,28.7,28.0,30.03,East,97,0.0,1.0,96,0.00,,,0.00,weatherlink.com 1.10,2013-02-14 12:47:00,
2013-02-14 08:02:00,29.2,29.0,30.04,East,97,1.0,1.0,97,0.00,,,0.00,weatherlink.com 1.10,2013-02-14 13:02:00,
2013-02-14 08:18:00,30.0,29.0,30.06,East,97,0.0,1.0,97,0.00,,,0.00,weatherlink.com 1.10,2013-02-14 13:18:00,
2013-02-14 08:33:00,30.7,30.0,30.06,East,97,0.0,1.0,97,0.00,,,0.00,weatherlink.com 1.10,2013-02-14 13:33:00,
2013-02-14 08:48:00,31.8,31.0,30.05,East,97,1.0,1.0,97,0.00,,,0.00,weatherlink.com 1.10,2013-02-14 13:48:00,
2013-02-14 09:03:00,32.6,32.0,30.06,East,97,0.0,2.0,96,0.00,,,0.00,weatherlink.com 1.10,2013-02-14 14:03:00,
2013-02-14 09:18:00,33.6,32.0,30.07,East,97,1.0,2.0,94,0.00,,,0.00,weatherlink.com 1.10,2013-02-14 14:18:00,
2013-02-14 09:33:00,35.2,33.0,30.06,NE,51,1.0,3.0,92,0.00,,,0.00,weatherlink.com 1.10,2013-02-14 14:33:00,
2013-02-14 09:48:00,37.0,33.0,30.06,NNW,329,2.0,3.0,85,0.00,,,0.00,weatherlink.com 1.10,2013-02-14 14:48:00,
2013-02-14 10:03:00,38.8,34.0,30.06,NNW,339,1.0,4.0,82,0.00,,,0.00,weatherlink.com 1.10,2013-02-14 15:03:00,
2013-02-14 10:18:00,40.6,34.0,30.06,NNW,332,2.0,4.0,78,0.00,,,0.00,weatherlink.com 1.10,2013-02-14 15:18:00,
2013-02-14 10:33:00,42.4,32.0,30.07,WNW,289,3.0,4.0,68,0.00,,,0.00,weatherlink.com 1.10,2013-02-14 15:33:00,
2013-02-14 10:48:00,43.3,33.0,30.05,WNW,301,1.0,5.0,67,0.00,,,0.00,weatherlink.com 1.10,2013-02-14 15:48:00,
2013-02-14 11:03:00,43.8,32.0,30.07,West,265,3.0,4.0,64,0.00,,,0.00,weatherlink.com 1.10,2013-02-14 16:03:00,
2013-02-14 11:18:00,45.4,32.0,30.07,SSW,207,2.0,4.0,60,0.00,,,0.00,weatherlink.com 1.10,2013-02-14 16:18:00,
2013-02-14 11:33:00,46.6,32.0,30.07,South,188,2.0,5.0,58,0.00,,,0.00,weatherlink.com 1.10,2013-02-14 16:33:00,
2013-02-14 11:48:00,46.5,34.0,30.06,SSE,165,0.0,3.0,61,0.00,,,0.00,weatherlink.com 1.10,2013-02-14 16:48:00,
2013-02-14 12:03:00,46.9,33.0,30.06,SSW,195,2.0,6.0,60,0.00,,,0.00,weatherlink.com 1.10,2013-02-14 17:03:00,
2013-02-14 12:18:00,47.8,34.0,30.06,SSW,205,4.0,5.0,60,0.00,,,0.00,weatherlink.com 1.10,2013-02-14 17:18:00,
2013-02-14 12:33:00,48.7,34.0,30.05,SSW,210,2.0,6.0,58,0.00,,,0.00,weatherlink.com 1.10,2013-02-14 17:33:00,
2013-02-14 12:48:00,49.1,34.0,30.05,SSW,205,4.0,6.0,57,0.00,,,0.00,weatherlink.com 1.10,2013-02-14 17:48:00,
2013-02-14 13:19:00,50.1,33.0,30.03,WNW,302,1.0,8.0,53,0.00,,,0.00,weatherlink.com 1.10,2013-02-14 18:19:00,
2013-02-14 13:33:00,50.4,34.0,30.02,SW,227,2.0,7.0,53,0.00,,,0.00,weatherlink.com 1.10,2013-02-14 18:33:00,
2013-02-14 13:48:00,51.2,34.0,30.02,WSW,243,4.0,8.0,52,0.00,,,0.00,weatherlink.com 1.10,2013-02-14 18:48:00,
2013-02-14 14:03:00,51.7,35.0,30.01,SE,130,2.0,8.0,53,0.00,,,0.00,weatherlink.com 1.10,2013-02-14 19:03:00,
2013-02-14 14:19:00,51.8,34.0,30.00,WNW,288,1.0,7.0,52,0.00,,,0.00,weatherlink.com 1.10,2013-02-14 19:19:00,
2013-02-14 14:34:00,51.8,33.0,30.00,WSW,254,4.0,10.0,49,0.00,,,0.00,weatherlink.com 1.10,2013-02-14 19:34:00,
2013-02-14 14:49:00,51.5,34.0,30.00,SE,141,2.0,8.0,51,0.00,,,0.00,weatherlink.com 1.10,2013-02-14 19:49:00,
2013-02-14 15:04:00,51.7,34.0,30.00,SW,222,3.0,6.0,51,0.00,,,0.00,weatherlink.com 1.10,2013-02-14 20:04:00,
2013-02-14 15:19:00,51.6,34.0,30.00,SW,228,3.0,10.0,51,0.00,,,0.00,weatherlink.com 1.10,2013-02-14 20:19:00,
2013-02-14 15:34:00,52.0,34.0,30.00,SSW,212,3.0,6.0,51,0.00,,,0.00,weatherlink.com 1.10,2013-02-14 20:34:00,
2013-02-14 15:49:00,52.3,34.0,30.01,SSW,203,2.0,7.0,50,0.00,,,0.00,weatherlink.com 1.10,2013-02-14 20:49:00,
2013-02-14 16:04:00,52.2,34.0,30.00,WSW,250,0.0,7.0,51,0.00,,,0.00,weatherlink.com 1.10,2013-02-14 21:04:00,
2013-02-14 16:19:00,52.2,34.0,30.00,WSW,242,5.0,7.0,51,0.00,,,0.00,weatherlink.com 1.10,2013-02-14 21:19:00,
2013-02-14 16:34:00,51.7,33.0,30.00,SSE,154,2.0,4.0,50,0.00,,,0.00,weatherlink.com 1.10,2013-02-14 21:34:00,
2013-02-14 16:49:00,52.1,33.0,30.00,SW,221,2.0,5.0,49,0.00,,,0.00,weatherlink.com 1.10,2013-02-14 21:49:00,
2013-02-14 17:04:00,51.5,34.0,30.00,WSW,246,1.0,4.0,52,0.00,,,0.00,weatherlink.com 1.10,2013-02-14 22:04:00,
2013-02-14 17:19:00,50.9,34.0,30.00,SSW,198,1.0,3.0,53,0.00,,,0.00,weatherlink.com 1.10,2013-02-14 22:19:00,
2013-02-14 17:34:00,50.9,35.0,29.99,SSW,211,0.0,2.0,54,0.00,,,0.00,weatherlink.com 1.10,2013-02-14 22:34:00,
2013-02-14 17:49:00,49.7,34.0,30.00,SSW,195,2.0,3.0,55,0.00,,,0.00,weatherlink.com 1.10,2013-02-14 22:49:00,
2013-02-14 18:04:00,48.6,34.0,30.00,SSW,195,0.0,2.0,58,0.00,,,0.00,weatherlink.com 1.10,2013-02-14 23:04:00,
2013-02-14 18:19:00,46.9,34.0,30.00,SSW,195,1.0,2.0,62,0.00,,,0.00,weatherlink.com 1.10,2013-02-14 23:19:00,
2013-02-14 18:34:00,45.3,34.0,30.01,SSW,195,1.0,2.0,66,0.00,,,0.00,weatherlink.com 1.10,2013-02-14 23:34:00,
2013-02-14 19:04:00,43.1,34.0,30.01,SSW,195,1.0,1.0,70,0.00,,,0.00,weatherlink.com 1.10,2013-02-15 00:04:00,
2013-02-14 19:19:00,42.5,34.0,30.01,SSW,195,0.0,1.0,72,0.00,,,0.00,weatherlink.com 1.10,2013-02-15 00:19:00,
2013-02-14 19:34:00,41.8,34.0,30.01,SSW,194,1.0,2.0,74,0.00,,,0.00,weatherlink.com 1.10,2013-02-15 00:34:00,
2013-02-14 19:49:00,41.1,34.0,30.02,SSW,194,0.0,1.0,76,0.00,,,0.00,weatherlink.com 1.10,2013-02-15 00:49:00,
2013-02-14 20:04:00,40.8,35.0,30.03,SSW,194,1.0,1.0,79,0.00,,,0.00,weatherlink.com 1.10,2013-02-15 01:04:00,
2013-02-14 20:19:00,40.4,34.0,30.02,SSW,194,1.0,1.0,77,0.00,,,0.00,weatherlink.com 1.10,2013-02-15 01:19:00,
2013-02-14 20:34:00,40.5,34.0,30.03,SSW,194,0.0,1.0,79,0.00,,,0.00,weatherlink.com 1.10,2013-02-15 01:34:00,
2013-02-14 20:49:00,40.3,34.0,30.04,SSW,194,0.0,1.0,79,0.00,,,0.00,weatherlink.com 1.10,2013-02-15 01:49:00,
2013-02-14 21:04:00,39.8,34.0,30.05,SSW,194,0.0,1.0,80,0.00,,,0.00,weatherlink.com 1.10,2013-02-15 02:04:00,
2013-02-14 21:19:00,39.8,35.0,30.05,SSW,194,1.0,1.0,82,0.00,,,0.00,weatherlink.com 1.10,2013-02-15 02:19:00,
2013-02-14 21:34:00,40.3,34.0,30.05,South,171,1.0,2.0,79,0.00,,,0.00,weatherlink.com 1.10,2013-02-15 02:34:00,
2013-02-14 21:49:00,40.0,34.0,30.06,South,171,1.0,2.0,79,0.00,,,0.00,weatherlink.com 1.10,2013-02-15 02:49:00,
2013-02-14 22:01:00,39.6,33.9,30.06,SSE,167,1.0,1.0,80,0.00,,,0.00,Wunderground v.1.15,2013-02-15 03:01:00,
2013-02-14 22:02:00,39.5,33.8,30.06,South,175,1.0,2.0,80,0.00,,,0.00,Cumulus v1.9.2,2013-02-15 03:02:00,
2013-02-14 22:03:00,39.5,33.8,30.06,South,169,1.0,2.0,80,0.00,,,0.00,Cumulus v1.9.2,2013-02-15 03:03:00,
2013-02-14 22:04:00,39.4,34.1,30.06,SSE,167,0.0,2.0,81,0.00,,,0.00,Cumulus v1.9.2,2013-02-15 03:04:00,
2013-02-14 22:08:00,39.4,34.1,30.06,SSE,166,0.0,2.0,81,0.00,,,0.00,Cumulus v1.9.2,2013-02-15 03:08:00,
2013-02-14 22:09:00,39.4,34.1,30.06,SSE,166,0.0,2.0,81,0.00,,,0.00,Cumulus v1.9.2,2013-02-15 03:09:00,
2013-02-14 22:10:00,39.4,34.1,30.06,SSE,166,0.0,2.0,81,0.00,,,0.00,Cumulus v1.9.2,2013-02-15 03:10:00,
2013-02-14 22:11:00,39.2,33.9,30.06,SSE,163,0.0,2.0,81,0.00,,,0.00,Cumulus v1.9.2,2013-02-15 03:11:00,
2013-02-14 22:12:00,39.2,33.9,30.06,SSE,157,1.0,2.0,81,0.00,,,0.00,Cumulus v1.9.2,2013-02-15 03:12:00,
2013-02-14 22:13:00,39.2,33.9,30.06,SSE,157,1.0,1.0,81,0.00,,,0.00,Cumulus v1.9.2,2013-02-15 03:13:00,
2013-02-14 22:14:00,39.1,34.1,30.06,SSE,157,1.0,1.0,82,0.00,,,0.00,Cumulus v1.9.2,2013-02-15 03:14:00,
2013-02-14 22:15:00,39.1,34.1,30.06,SSE,157,1.0,1.0,82,0.00,,,0.00,Cumulus v1.9.2,2013-02-15 03:15:00,
2013-02-14 22:16:00,39.1,34.1,30.06,SSE,157,1.0,1.0,82,0.00,,,0.00,Cumulus v1.9.2,2013-02-15 03:16:00,
2013-02-14 22:17:00,39.1,34.1,30.06,SSE,157,0.0,1.0,82,0.00,,,0.00,Cumulus v1.9.2,2013-02-15 03:17:00,
2013-02-14 22:18:00,39.1,34.1,30.06,SSE,157,1.0,1.0,82,0.00,,,0.00,Cumulus v1.9.2,2013-02-15 03:18:00,
2013-02-14 22:19:00,39.0,34.0,30.06,SSE,157,1.0,1.0,82,0.00,,,0.00,Cumulus v1.9.2,2013-02-15 03:19:00,
2013-02-14 22:20:00,39.0,34.0,30.05,SSE,165,0.0,1.0,82,0.00,,,0.00,weatherlink.com 1.10,2013-02-15 03:20:00,
2013-02-14 22:21:00,38.9,33.9,30.06,SSE,157,0.0,1.0,82,0.00,,,0.00,Cumulus v1.9.2,2013-02-15 03:21:00,
2013-02-14 22:22:00,38.9,33.9,30.06,SSE,157,1.0,1.0,82,0.00,,,0.00,Cumulus v1.9.2,2013-02-15 03:22:00,
2013-02-14 22:23:00,38.9,33.9,30.06,SSE,157,0.0,1.0,82,0.00,,,0.00,Cumulus v1.9.2,2013-02-15 03:23:00,
2013-02-14 22:24:00,38.8,33.8,30.06,SSE,157,0.0,1.0,82,0.00,,,0.00,Cumulus v1.9.2,2013-02-15 03:24:00,
2013-02-14 22:25:00,38.8,33.8,30.06,SSE,157,0.0,1.0,82,0.00,,,0.00,Cumulus v1.9.2,2013-02-15 03:25:00,
2013-02-14 22:26:00,38.8,33.8,30.06,SSE,157,1.0,1.0,82,0.00,,,0.00,Cumulus v1.9.2,2013-02-15 03:26:00,
2013-02-14 22:27:00,38.7,33.7,30.06,SSE,157,1.0,1.0,82,0.00,,,0.00,Cumulus v1.9.2,2013-02-15 03:27:00,
2013-02-14 22:28:00,38.7,33.7,30.06,SSE,157,1.0,1.0,82,0.00,,,0.00,Cumulus v1.9.2,2013-02-15 03:28:00,
2013-02-14 22:29:00,38.7,33.7,30.06,SSE,157,1.0,1.0,82,0.00,,,0.00,Cumulus v1.9.2,2013-02-15 03:29:00,
2013-02-14 22:30:00,38.7,33.7,30.06,SSE,157,1.0,1.0,82,0.00,,,0.00,Cumulus v1.9.2,2013-02-15 03:30:00,
2013-02-14 22:31:00,38.7,33.7,30.06,SSE,157,1.0,1.0,82,0.00,,,0.00,Cumulus v1.9.2,2013-02-15 03:31:00,
2013-02-14 22:32:00,38.6,33.6,30.06,SSE,157,1.0,1.0,82,0.00,,,0.00,Cumulus v1.9.2,2013-02-15 03:32:00,
2013-02-14 22:33:00,38.6,33.6,30.06,SSE,157,1.0,1.0,82,0.00,,,0.00,Cumulus v1.9.2,2013-02-15 03:33:00,
2013-02-14 22:34:00,38.6,34.0,30.05,SSE,165,1.0,1.0,83,0.00,,,0.00,weatherlink.com 1.10,2013-02-15 03:34:00,
2013-02-14 22:35:00,38.6,33.9,30.06,SSE,157,0.0,1.0,83,0.00,,,0.00,Cumulus v1.9.2,2013-02-15 03:35:00,
2013-02-14 22:36:00,38.5,33.5,30.06,SSE,157,0.0,1.0,82,0.00,,,0.00,Cumulus v1.9.2,2013-02-15 03:36:00,
2013-02-14 22:37:00,38.5,33.8,30.06,SSE,157,0.0,1.0,83,0.00,,,0.00,Cumulus v1.9.2,2013-02-15 03:37:00,
2013-02-14 22:38:00,38.4,33.7,30.06,SSE,157,0.0,1.0,83,0.00,,,0.00,Cumulus v1.9.2,2013-02-15 03:38:00,
2013-02-14 22:39:00,38.4,33.7,30.06,SSE,157,0.0,1.0,83,0.00,,,0.00,Cumulus v1.9.2,2013-02-15 03:39:00,
2013-02-14 22:40:00,38.3,33.6,30.06,SSE,157,0.0,1.0,83,0.00,,,0.00,Cumulus v1.9.2,2013-02-15 03:40:00,
2013-02-14 22:41:00,38.3,33.6,30.06,SSE,157,0.0,1.0,83,0.00,,,0.00,Cumulus v1.9.2,2013-02-15 03:41:00,
2013-02-14 22:42:00,38.2,33.5,30.06,SSE,157,0.0,1.0,83,0.00,,,0.00,Cumulus v1.9.2,2013-02-15 03:42:00,
2013-02-14 22:43:00,38.2,33.5,30.06,SSE,157,0.0,1.0,83,0.00,,,0.00,Cumulus v1.9.2,2013-02-15 03:43:00,
2013-02-14 22:44:00,38.2,33.5,30.06,SSE,157,0.0,1.0,83,0.00,,,0.00,Cumulus v1.9.2,2013-02-15 03:44:00,
2013-02-14 22:45:00,38.1,33.4,30.06,SSE,157,0.0,1.0,83,0.00,,,0.00,Cumulus v1.9.2,2013-02-15 03:45:00,
2013-02-14 22:46:00,38.0,33.3,30.06,SSE,157,0.0,1.0,83,0.00,,,0.00,Cumulus v1.9.2,2013-02-15 03:46:00,
2013-02-14 22:47:00,38.0,33.6,30.06,SSE,157,0.0,1.0,84,0.00,,,0.00,Cumulus v1.9.2,2013-02-15 03:47:00,
2013-02-14 22:48:00,37.9,33.5,30.06,SSE,157,1.0,1.0,84,0.00,,,0.00,Cumulus v1.9.2,2013-02-15 03:48:00,
2013-02-14 22:49:00,37.9,33.5,30.06,SSE,157,1.0,1.0,84,0.00,,,0.00,Cumulus v1.9.2,2013-02-15 03:49:00,
2013-02-14 22:50:00,37.9,34.0,30.06,SSE,165,1.0,1.0,84,0.00,,,0.00,weatherlink.com 1.10,2013-02-15 03:50:00,
2013-02-14 22:51:00,37.8,33.4,30.06,SSE,157,1.0,1.0,84,0.00,,,0.00,Cumulus v1.9.2,2013-02-15 03:51:00,
2013-02-14 22:52:00,37.7,33.3,30.06,SSE,157,1.0,1.0,84,0.00,,,0.00,Cumulus v1.9.2,2013-02-15 03:52:00,
2013-02-14 22:53:00,37.7,33.3,30.06,SSE,157,0.0,1.0,84,0.00,,,0.00,Cumulus v1.9.2,2013-02-15 03:53:00,
2013-02-14 22:54:00,37.6,33.2,30.06,SSE,157,0.0,1.0,84,0.00,,,0.00,Cumulus v1.9.2,2013-02-15 03:54:00,
2013-02-14 22:55:00,37.6,33.5,30.06,SSE,157,0.0,1.0,85,0.00,,,0.00,Cumulus v1.9.2,2013-02-15 03:55:00,
2013-02-14 22:56:00,37.5,33.4,30.06,SSE,157,0.0,1.0,85,0.00,,,0.00,Cumulus v1.9.2,2013-02-15 03:56:00,
2013-02-14 22:57:00,37.4,33.3,30.06,SSE,157,0.0,1.0,85,0.00,,,0.00,Cumulus v1.9.2,2013-02-15 03:57:00,
2013-02-14 22:58:00,37.4,33.3,30.06,SSE,157,0.0,1.0,85,0.00,,,0.00,Cumulus v1.9.2,2013-02-15 03:58:00,
2013-02-14 22:59:00,37.4,33.3,30.06,SSE,157,0.0,1.0,85,0.00,,,0.00,Cumulus v1.9.2,2013-02-15 03:59:00,
2013-02-14 23:00:00,37.3,33.2,30.06,SSE,157,0.0,1.0,85,0.00,,,0.00,Cumulus v1.9.2,2013-02-15 04:00:00,
2013-02-14 23:01:00,37.3,33.2,30.06,SSE,157,0.0,1.0,85,0.00,,,0.00,Cumulus v1.9.2,2013-02-15 04:01:00,
2013-02-14 23:02:00,37.2,33.1,30.06,SSE,157,0.0,1.0,85,0.00,,,0.00,Cumulus v1.9.2,2013-02-15 04:02:00,
2013-02-14 23:03:00,37.1,33.3,30.06,SSE,157,0.0,1.0,86,0.00,,,0.00,Cumulus v1.9.2,2013-02-15 04:03:00,
2013-02-14 23:04:00,37.1,33.3,30.06,SSE,157,0.0,1.0,86,0.00,,,0.00,Cumulus v1.9.2,2013-02-15 04:04:00,
2013-02-14 23:05:00,37.1,33.0,30.06,SSE,165,0.0,1.0,86,0.00,,,0.00,weatherlink.com 1.10,2013-02-15 04:05:00,
2013-02-14 23:06:00,37.0,33.2,30.06,SSE,156,0.0,1.0,86,0.00,,,0.00,Cumulus v1.9.2,2013-02-15 04:06:00,
2013-02-14 23:07:00,37.0,33.2,30.06,SSE,156,0.0,1.0,86,0.00,,,0.00,Cumulus v1.9.2,2013-02-15 04:07:00,
2013-02-14 23:08:00,36.9,33.1,30.06,SSE,157,1.0,1.0,86,0.00,,,0.00,Cumulus v1.9.2,2013-02-15 04:08:00,
2013-02-14 23:09:00,36.9,33.1,30.06,SSE,157,0.0,1.0,86,0.00,,,0.00,Cumulus v1.9.2,2013-02-15 04:09:00,
2013-02-14 23:10:00,36.9,33.1,30.06,SSE,157,0.0,1.0,86,0.00,,,0.00,Cumulus v1.9.2,2013-02-15 04:10:00,
2013-02-14 23:11:00,36.9,33.1,30.06,SSE,157,0.0,1.0,86,0.00,,,0.00,Cumulus v1.9.2,2013-02-15 04:11:00,
2013-02-14 23:12:00,36.9,33.1,30.06,SSE,157,0.0,1.0,86,0.00,,,0.00,Cumulus v1.9.2,2013-02-15 04:12:00,
2013-02-14 23:13:00,36.8,33.0,30.06,SSE,157,0.0,1.0,86,0.00,,,0.00,Cumulus v1.9.2,2013-02-15 04:13:00,
2013-02-14 23:14:00,36.8,33.0,30.06,SSE,157,0.0,1.0,86,0.00,,,0.00,Cumulus v1.9.2,2013-02-15 04:14:00,
2013-02-14 23:15:00,36.8,32.7,30.06,SSE,157,0.0,1.0,85,0.00,,,0.00,Cumulus v1.9.2,2013-02-15 04:15:00,
2013-02-14 23:16:00,36.7,32.9,30.06,SSE,157,0.0,1.0,86,0.00,,,0.00,Cumulus v1.9.2,2013-02-15 04:16:00,
2013-02-14 23:17:00,36.6,32.8,30.06,SSE,157,0.0,1.0,86,0.00,,,0.00,Cumulus v1.9.2,2013-02-15 04:17:00,
2013-02-14 23:18:00,36.6,32.8,30.06,SSE,156,0.0,1.0,86,0.00,,,0.00,Cumulus v1.9.2,2013-02-15 04:18:00,
2013-02-14 23:19:00,36.5,32.7,30.06,SSE,156,0.0,1.0,86,0.00,,,0.00,Cumulus v1.9.2,2013-02-15 04:19:00,
2013-02-14 23:20:00,36.5,33.0,30.06,SSE,165,0.0,0.0,86,0.00,,,0.00,weatherlink.com 1.10,2013-02-15 04:20:00,
2013-02-14 23:21:00,36.4,32.6,30.06,North,0,0.0,0.0,86,0.00,,,0.00,Cumulus v1.9.2,2013-02-15 04:21:00,
2013-02-14 23:22:00,36.3,32.5,30.06,North,0,0.0,0.0,86,0.00,,,0.00,Cumulus v1.9.2,2013-02-15 04:22:00,
2013-02-14 23:23:00,36.2,32.4,30.06,SSE,156,0.0,1.0,86,0.00,,,0.00,Cumulus v1.9.2,2013-02-15 04:23:00,
2013-02-14 23:24:00,36.2,32.7,30.06,SSE,156,1.0,1.0,87,0.00,,,0.00,Cumulus v1.9.2,2013-02-15 04:24:00,
2013-02-14 23:25:00,36.1,32.6,30.06,SSE,157,1.0,1.0,87,0.00,,,0.00,Cumulus v1.9.2,2013-02-15 04:25:00,
2013-02-14 23:26:00,36.1,32.6,30.06,SSE,157,1.0,1.0,87,0.00,,,0.00,Cumulus v1.9.2,2013-02-15 04:26:00,
2013-02-14 23:27:00,36.1,32.6,30.06,SSE,157,1.0,1.0,87,0.00,,,0.00,Cumulus v1.9.2,2013-02-15 04:27:00,
2013-02-14 23:28:00,36.0,32.5,30.06,SSE,157,1.0,1.0,87,0.00,,,0.00,Cumulus v1.9.2,2013-02-15 04:28:00,
2013-02-14 23:29:00,36.0,32.5,30.06,SSE,157,0.0,1.0,87,0.00,,,0.00,Cumulus v1.9.2,2013-02-15 04:29:00,
2013-02-14 23:30:00,35.9,32.7,30.06,SSE,157,0.0,1.0,88,0.00,,,0.00,Cumulus v1.9.2,2013-02-15 04:30:00,
2013-02-14 23:31:00,35.9,32.7,30.07,SSE,157,0.0,1.0,88,0.00,,,0.00,Cumulus v1.9.2,2013-02-15 04:31:00,
2013-02-14 23:32:00,35.9,32.7,30.07,SSE,157,0.0,1.0,88,0.00,,,0.00,Cumulus v1.9.2,2013-02-15 04:32:00,
2013-02-14 23:33:00,35.9,32.7,30.06,SSE,157,0.0,1.0,88,0.00,,,0.00,Cumulus v1.9.2,2013-02-15 04:33:00,
2013-02-14 23:34:00,35.9,32.7,30.07,SSE,157,0.0,1.0,88,0.00,,,0.00,Cumulus v1.9.2,2013-02-15 04:34:00,
2013-02-14 23:35:00,35.9,33.0,30.06,SSE,165,0.0,1.0,88,0.00,,,0.00,weatherlink.com 1.10,2013-02-15 04:35:00,
2013-02-14 23:36:00,35.8,32.6,30.07,SSE,157,0.0,1.0,88,0.00,,,0.00,Cumulus v1.9.2,2013-02-15 04:36:00,
2013-02-14 23:37:00,35.8,32.9,30.07,SSE,157,0.0,1.0,89,0.00,,,0.00,Cumulus v1.9.2,2013-02-15 04:37:00,
2013-02-14 23:38:00,35.8,32.9,30.07,SSE,157,0.0,1.0,89,0.00,,,0.00,Cumulus v1.9.2,2013-02-15 04:38:00,
2013-02-14 23:39:00,35.7,32.8,30.07,SSE,156,0.0,1.0,89,0.00,,,0.00,Cumulus v1.9.2,2013-02-15 04:39:00,
2013-02-14 23:40:00,35.7,32.8,30.07,SSE,156,0.0,1.0,89,0.00,,,0.00,Cumulus v1.9.2,2013-02-15 04:40:00,
2013-02-14 23:41:00,35.7,32.8,30.07,North,0,0.0,0.0,89,0.00,,,0.00,Cumulus v1.9.2,2013-02-15 04:41:00,
2013-02-14 23:42:00,35.7,32.8,30.07,SSE,156,0.0,1.0,89,0.00,,,0.00,Cumulus v1.9.2,2013-02-15 04:42:00,
2013-02-14 23:43:00,35.7,32.8,30.07,SSE,156,0.0,1.0,89,0.00,,,0.00,Cumulus v1.9.2,2013-02-15 04:43:00,
2013-02-14 23:44:00,35.6,32.7,30.07,SSE,156,0.0,1.0,89,0.00,,,0.00,Cumulus v1.9.2,2013-02-15 04:44:00,
2013-02-14 23:45:00,35.6,32.7,30.07,SSE,156,0.0,1.0,89,0.00,,,0.00,Cumulus v1.9.2,2013-02-15 04:45:00,
2013-02-14 23:46:00,35.6,33.0,30.07,SSE,156,0.0,1.0,90,0.00,,,0.00,Cumulus v1.9.2,2013-02-15 04:46:00,
2013-02-14 23:47:00,35.5,32.9,30.07,SSE,157,0.0,1.0,90,0.00,,,0.00,Cumulus v1.9.2,2013-02-15 04:47:00,
2013-02-14 23:48:00,35.5,32.9,30.07,SSE,157,0.0,1.0,90,0.00,,,0.00,Cumulus v1.9.2,2013-02-15 04:48:00,
2013-02-14 23:49:00,35.5,32.9,30.07,SSE,157,0.0,1.0,90,0.00,,,0.00,Cumulus v1.9.2,2013-02-15 04:49:00,
2013-02-14 23:50:00,35.5,33.0,30.07,SSE,165,0.0,1.0,90,0.00,,,0.00,weatherlink.com 1.10,2013-02-15 04:50:00,
2013-02-14 23:51:00,35.5,33.1,30.07,SSE,157,0.0,1.0,91,0.00,,,0.00,Cumulus v1.9.2,2013-02-15 04:51:00,
2013-02-14 23:52:00,35.5,33.1,30.08,SSE,157,0.0,1.0,91,0.00,,,0.00,Cumulus v1.9.2,2013-02-15 04:52:00,
2013-02-14 23:53:00,35.5,33.1,30.08,SSE,156,0.0,1.0,91,0.00,,,0.00,Cumulus v1.9.2,2013-02-15 04:53:00,
2013-02-14 23:54:00,35.5,33.1,30.08,SSE,156,0.0,1.0,91,0.00,,,0.00,Cumulus v1.9.2,2013-02-15 04:54:00,
2013-02-14 23:55:00,35.5,33.1,30.08,SSE,156,0.0,1.0,91,0.00,,,0.00,Cumulus v1.9.2,2013-02-15 04:55:00,
2013-02-14 23:56:00,35.5,33.1,30.08,SSE,156,0.0,1.0,91,0.00,,,0.00,Cumulus v1.9.2,2013-02-15 04:56:00,
2013-02-14 23:57:00,35.5,33.1,30.08,North,0,0.0,0.0,91,0.00,,,0.00,Cumulus v1.9.2,2013-02-15 04:57:00,
2013-02-14 23:58:00,35.5,33.1,30.08,North,0,0.0,0.0,91,0.00,,,0.00,Cumulus v1.9.2,2013-02-15 04:58:00,
2013-02-14 23:59:00,35.4,33.0,30.08,North,0,0.0,0.0,91,0.00,,,0.00,Cumulus v1.9.2,2013-02-15 04:59:00,